Mackinac Island, MI

1:43 AM EDT on June 23, 2017 (GMT -0400)
Mackinac Island

Weather History for KMCD - November, 2011

Change the Weather History Date:

Tuesday, November 1, 2011

  Actual Average Record
Temperature  
Mean Temperature 46 °F -  
Max Temperature 50 °F 45 °F 66 °F (1999)
Min Temperature 41 °F 35 °F 26 °F (1993)
Degree Days  
Heating Degree Days 20    
Moisture  
Dew Point 39 °F    
Average Humidity 78    
Maximum Humidity 93    
Minimum Humidity 62    
Precipitation  
Precipitation 0.00 in - - ()
Sea Level Pressure  
Sea Level Pressure 30.07 in    
Wind  
Wind Speed 3 mph (SSW)    
Max Wind Speed 8 mph    
Max Gust Speed -    
Visibility 10 miles    
Events Rain    
Averages and records for this station are not official NWS values.
T = Trace of Precipitation, MM = Missing Value Source: NWS Daily Summary

Daily Weather History Graph

Daily Weather History Graph

Search for Another Location

Airport or City:

Trip Planner

Search our weather history database for the weather conditions in past years. The results will help you decide how hot, cold, wet, or windy it might be!

Date:

Astronomy

Nov. 01, 2011 Rise Set
Actual Time 8:18 AM EDT 6:25 PM EDT
Civil Twilight 7:47 AM EDT 6:56 PM EDT
Nautical Twilight 7:12 AM EDT 7:31 PM EDT
Astronomical Twilight 6:37 AM EDT 8:06 PM EDT
Moon 2:08 PM EDT (11/1) No Moon Set
Length of Visible Light 11h 09m
Length of Day
10h 06m
Waxing Crescent, 39% of the Moon is Illuminated
Nov 1
Waxing Crescent
Nov 2
First Quarter
Nov 10
Full
Nov 18
Last Quarter
Nov 25
New

Hourly Weather History & Observations

Time (EDT) Temp. Windchill Dew Point Humidity Pressure Visibility Wind Dir Wind Speed Gust Speed Precip Events Conditions
12:14 AM 44.6 °F - 39.2 °F 81% 30.07 in 10.0 mi Calm Calm - N/A   Overcast
12:34 AM 44.6 °F - 39.2 °F 81% 30.07 in 10.0 mi Calm Calm - N/A   Overcast
12:54 AM 44.6 °F - 39.2 °F 81% 30.07 in 10.0 mi Calm Calm - N/A   Mostly Cloudy
1:14 AM 42.8 °F 41.1 °F 39.2 °F 87% 30.07 in 10.0 mi SSW 3.5 mph - N/A   Scattered Clouds
1:34 AM 42.8 °F 41.1 °F 39.2 °F 87% 30.08 in 10.0 mi SW 3.5 mph - N/A   Mostly Cloudy
1:54 AM 42.8 °F 40.1 °F 39.2 °F 87% 30.08 in 10.0 mi SSW 4.6 mph - N/A   Mostly Cloudy
2:14 AM 42.8 °F 39.3 °F 37.4 °F 81% 30.08 in 10.0 mi SSW 5.8 mph - N/A   Mostly Cloudy
2:34 AM 42.8 °F 40.1 °F 37.4 °F 81% 30.08 in 10.0 mi SSW 4.6 mph - N/A   Scattered Clouds
2:54 AM 42.8 °F 40.1 °F 37.4 °F 81% 30.09 in 10.0 mi SSW 4.6 mph - N/A   Clear
3:14 AM 42.8 °F 39.3 °F 39.2 °F 87% 30.09 in 10.0 mi SSW 5.8 mph - N/A   Scattered Clouds
3:34 AM 42.8 °F 41.1 °F 39.2 °F 87% 30.09 in 10.0 mi SSW 3.5 mph - N/A   Mostly Cloudy
3:54 AM 42.8 °F - 39.2 °F 87% 30.09 in 10.0 mi Calm Calm - N/A   Scattered Clouds
4:14 AM 42.8 °F 41.1 °F 39.2 °F 87% 30.08 in 10.0 mi SSW 3.5 mph - N/A   Scattered Clouds
4:33 AM 41.0 °F 39.0 °F 39.2 °F 93% 30.08 in 7.0 mi South 3.5 mph - N/A   Scattered Clouds
4:54 AM 42.8 °F 39.3 °F 39.2 °F 87% 30.08 in 7.0 mi SSW 5.8 mph - N/A   Mostly Cloudy
5:14 AM 42.8 °F 40.1 °F 37.4 °F 81% 30.09 in 7.0 mi SSW 4.6 mph - N/A   Overcast
5:34 AM 42.8 °F 41.1 °F 37.4 °F 81% 30.09 in 10.0 mi SSW 3.5 mph - N/A   Overcast
5:54 AM 42.8 °F 40.1 °F 37.4 °F 81% 30.09 in 10.0 mi SW 4.6 mph - N/A   Overcast
6:14 AM 42.8 °F 40.1 °F 37.4 °F 81% 30.09 in 10.0 mi SSW 4.6 mph - N/A   Overcast
6:33 AM 42.8 °F 40.1 °F 37.4 °F 81% 30.10 in 10.0 mi SSW 4.6 mph - N/A   Overcast
6:54 AM 42.8 °F 41.1 °F 37.4 °F 81% 30.09 in 10.0 mi SSW 3.5 mph - N/A   Overcast
7:14 AM 42.8 °F 40.1 °F 37.4 °F 81% 30.09 in 10.0 mi SSW 4.6 mph - N/A   Overcast
7:33 AM 42.8 °F 40.1 °F 37.4 °F 81% 30.09 in 10.0 mi SSW 4.6 mph - N/A   Overcast
8:14 AM 42.8 °F 40.1 °F 37.4 °F 81% 30.08 in 10.0 mi SSW 4.6 mph - N/A   Overcast
8:33 AM 42.8 °F 41.1 °F 37.4 °F 81% 30.09 in 7.0 mi South 3.5 mph - N/A   Overcast
9:14 AM 42.8 °F 39.3 °F 37.4 °F 81% 30.10 in 10.0 mi SSW 5.8 mph - N/A   Overcast
9:34 AM 42.8 °F 39.3 °F 37.4 °F 81% 30.10 in 10.0 mi South 5.8 mph - N/A   Overcast
9:54 AM 42.8 °F 41.1 °F 37.4 °F 81% 30.11 in 10.0 mi South 3.5 mph - N/A   Overcast
10:14 AM 42.8 °F 38.6 °F 37.4 °F 81% 30.10 in 10.0 mi South 6.9 mph - N/A   Overcast
10:34 AM 42.8 °F 41.1 °F 37.4 °F 81% 30.10 in 10.0 mi South 3.5 mph - N/A   Overcast
10:54 AM 44.6 °F 42.2 °F 37.4 °F 76% 30.09 in 10.0 mi South 4.6 mph - N/A   Overcast
11:14 AM 44.6 °F 42.2 °F 37.4 °F 76% 30.08 in 10.0 mi SSW 4.6 mph - N/A   Mostly Cloudy
11:34 AM 44.6 °F 40.2 °F 37.4 °F 76% 30.08 in 10.0 mi South 8.1 mph - N/A   Scattered Clouds
11:54 AM 46.4 °F 45.2 °F 37.4 °F 71% 30.09 in 10.0 mi SSW 3.5 mph - N/A   Scattered Clouds
12:14 PM 46.4 °F 45.2 °F 37.4 °F 71% 30.09 in 10.0 mi SW 3.5 mph - N/A   Overcast
12:34 PM 46.4 °F 45.2 °F 39.2 °F 76% 30.09 in 10.0 mi SSW 3.5 mph - N/A   Mostly Cloudy
12:54 PM 48.2 °F - 39.2 °F 71% 30.08 in 10.0 mi SW 4.6 mph - N/A   Mostly Cloudy
1:14 PM 48.2 °F - 39.2 °F 71% 30.08 in 10.0 mi SW 4.6 mph - N/A   Overcast
1:34 PM 48.2 °F - 39.2 °F 71% 30.07 in 10.0 mi SSW 4.6 mph - N/A   Overcast
1:54 PM 48.2 °F - 39.2 °F 71% 30.07 in 10.0 mi SW 3.5 mph - N/A   Overcast
2:14 PM 50.0 °F - 39.2 °F 66% 30.06 in 10.0 mi SSW 4.6 mph - N/A   Mostly Cloudy
2:34 PM 50.0 °F - 37.4 °F 62% 30.06 in 10.0 mi Calm Calm - N/A   Scattered Clouds
2:54 PM 50.0 °F - 39.2 °F 66% 30.06 in 10.0 mi West 3.5 mph - N/A   Mostly Cloudy
3:14 PM 50.0 °F - 41.0 °F 71% 30.06 in 10.0 mi Calm Calm - N/A   Scattered Clouds
3:34 PM 50.0 °F - 41.0 °F 71% 30.05 in 10.0 mi WSW 3.5 mph - N/A   Mostly Cloudy
4:14 PM 50.0 °F - 41.0 °F 71% 30.05 in 10.0 mi SSW 3.5 mph - N/A Rain Light Rain
4:34 PM 48.2 °F - 41.0 °F 76% 30.04 in 10.0 mi SSW 3.5 mph - N/A Rain Light Rain
4:54 PM 48.2 °F - 41.0 °F 76% 30.04 in 10.0 mi South 3.5 mph - N/A   Mostly Cloudy
5:14 PM 50.0 °F - 41.0 °F 71% 30.04 in 10.0 mi SSE 3.5 mph - N/A   Mostly Cloudy
5:34 PM 50.0 °F - 41.0 °F 71% 30.04 in 10.0 mi Calm Calm - N/A   Scattered Clouds
5:54 PM 48.2 °F - 41.0 °F 76% 30.03 in 10.0 mi Calm Calm - N/A   Scattered Clouds
6:14 PM 48.2 °F - 39.2 °F 71% 30.03 in 10.0 mi SSE 3.5 mph - N/A   Scattered Clouds
6:34 PM 48.2 °F - 39.2 °F 71% 30.02 in 10.0 mi Calm Calm - N/A   Scattered Clouds
6:54 PM 48.2 °F - 39.2 °F 71% 30.02 in 10.0 mi SE 3.5 mph - N/A   Mostly Cloudy
7:14 PM 46.4 °F 45.2 °F 41.0 °F 81% 30.02 in 10.0 mi ESE 3.5 mph - N/A   Mostly Cloudy
7:34 PM 46.4 °F 45.2 °F 41.0 °F 81% 30.01 in 10.0 mi ESE 3.5 mph - N/A   Mostly Cloudy
7:54 PM 46.4 °F - 42.8 °F 87% 30.01 in 10.0 mi Calm Calm - N/A   Mostly Cloudy
8:14 PM 46.4 °F 45.2 °F 41.0 °F 81% 30.01 in 10.0 mi SSE 3.5 mph - N/A   Scattered Clouds
8:34 PM 48.2 °F - 37.4 °F 66% 30.01 in 10.0 mi SSE 3.5 mph - N/A   Scattered Clouds
8:53 PM 48.2 °F - 37.4 °F 66% 30.01 in 10.0 mi SSE 3.5 mph - N/A   Scattered Clouds
9:14 PM 48.2 °F - 37.4 °F 66% 30.01 in 10.0 mi SSE 5.8 mph - N/A   Clear
9:34 PM 48.2 °F - 37.4 °F 66% 30.01 in 10.0 mi SSE 3.5 mph - N/A   Clear
9:54 PM 48.2 °F - 37.4 °F 66% 30.01 in 10.0 mi SSE 3.5 mph - N/A   Clear
10:14 PM 48.2 °F - 37.4 °F 66% 30.01 in 10.0 mi SSE 3.5 mph - N/A   Clear
10:34 PM 48.2 °F - 37.4 °F 66% 30.02 in 10.0 mi Calm Calm - N/A   Clear
10:54 PM 48.2 °F - 37.4 °F 66% 30.02 in 10.0 mi Calm Calm - N/A   Clear
11:34 PM 46.4 °F - 37.4 °F 71% 30.00 in 10.0 mi Calm Calm - N/A   Clear
11:54 PM 46.4 °F - 37.4 °F 71% 30.00 in 10.0 mi Calm Calm - N/A   Clear